Location: Alafon
(8.4500°N, 4.2333°E)
Time: 17:48:33
(UTC+00:00)

deb Explorer IX - Pass Details

Date: 02 August 2021
Orbit: 545 x 1091 km, 38.8° (Epoch: 20 September)

Event Time Altitude Azimuth Distance (km) Brightness Sun altitude
Rises 20:33:54 0° 293° (WNW) 3,785 ? -35.2°
Reaches altitude 10° 20:36:49 10° 285° (WNW) 2,879 ? -35.8°
Enters shadow 20:42:14 33° 237° (WSW) 1,722 ? -37.0°
Maximum altitude 20:43:09 35° 222° (SW) 1,691 - -37.2°
Drops below altitude 10° 20:49:34 10° 159° (SSE) 2,907 - -38.6°
Sets 20:52:32 0° 150° (SSE) 3,827 - -39.2°
